This demonstration page uses our WeatherBlox Daily Observations layout. Learn more.

Left ArrowRight Arrow

Hourly Observations for September 24, 2017

Temp ( °F °C ) Dew Point ( °F °C ) Humidity (%) Winds ( mph kmh ) Pressure ( in mb ) Visibility ( mi km ) Precip ( " mm )
12:54 am 00:54 Clear 76 24.4 63 17.2 64 64 S 12 19 29.85 1011 10 16.0934 0 0
1:54 am 01:54 Clear 73 22.8 63 17.2 71 71 S 10 17 29.85 1011 10 16.0934 0 0
2:54 am 02:54 Clear 72 22.2 63 17.2 73 73 SSE 9 15 29.86 1011 10 16.0934 0 0
3:54 am 03:54 Clear 70 21.1 62 16.7 76 76 S 7 11 29.86 1011 10 16.0934 0 0
4:54 am 04:54 Clear 68 20 62 16.7 81 81 S 6 9 29.87 1012 10 16.0934 0 0
5:54 am 05:54 Clear 67 19.4 62 16.7 84 84 SSE 8 13 29.87 1011 10 16.0934 0 0
6:54 am 06:54 Clear 69 20.6 62 16.7 78 78 S 9 15 29.87 1011 10 16.0934 0 0
7:54 am 07:54 Sunny 71 21.7 62 16.7 73 73 S 10 17 29.87 1012 10 16.0934 0 0
8:54 am 08:54 Sunny 74 23.3 63 17.2 69 69 S 12 19 29.87 1012 10 16.0934 0 0
9:54 am 09:54 Partly Cloudy 81 27.2 64 17.8 57 57 S 15 24 29.87 1012 10 16.0934 0 0
10:54 am 10:54 Sunny 84 28.9 65 18.3 53 53 S 18 30 29.87 1011 10 16.0934 0 0
11:54 am 11:54 Sunny 86 30 64 17.8 48 48 SW 16 26 29.87 1012 10 16.0934 0 0
12:54 pm 12:54 Partly Cloudy 86 30 63 17.2 46 46 S 20 31 29.86 1011 10 16.0934 0 0
1:54 pm 13:54 Mostly Cloudy 88 31.1 65 18.3 46 46 S 16 26 29.85 1011 10 16.0934 0 0.0254
2:06 pm 14:06 Partly Cloudy with Nearby Thunderstorms 87 30.6 66 18.9 50 50 SSE 14 22 29.8 1009 10 16.0934 0 0
2:30 pm 14:30 Partly Cloudy with Light Rain 85 29.4 65 18.3 51 51 SSW 17 28 29.83 1010 9 14.48406 0 0.0254
2:51 pm 14:51 Partly Cloudy with Nearby Thunderstorms 86 30 64 18 49 49 S 15 24 29.8 1009 10 16.0934 0 0.0254
2:54 pm 14:54 Partly Cloudy with Nearby Thunderstorms 86 30 65 18.3 49 49 S 14 22 29.83 1010 10 16.0934 0 0.0254
3:06 pm 15:06 Partly Cloudy 85 29.4 67 19.4 55 55 SSE 13 20 29.83 1010 10 16.0934 0 0
3:54 pm 15:54 Partly Cloudy 81 27.2 64 17.8 57 57 SE 15 24 29.84 1011 10 16.0934 0 0
4:54 pm 16:54 Sunny 82 27.8 66 18.9 58 58 SSE 12 19 29.82 1010 10 16.0934 0 0
5:54 pm 17:54 Mostly Sunny 84 28.9 65 18.3 53 53 S 10 17 29.82 1010 10 16.0934 0 0
6:37 pm 18:37 Mostly Cloudy 77 25 64 17.8 64 64 NW 15 24 29.83 1010 10 16.0934 0 0
6:54 pm 18:54 Mostly Cloudy 77 25 64 17.8 64 64 NNW 17 28 29.86 1011 10 16.0934 0 0
7:54 pm 19:54 Cloudy with Light Rain 72 22.2 64 17.8 76 76 N 13 20 29.89 1012 7 11.26538 0 0.0254
8:41 pm 20:41 Cloudy with Light Thunderstorms 68 20 64 17.8 87 87 NNE 15 24 29.88 1012 8 12.87472 0.05 1.27
8:54 pm 20:54 Mostly Cloudy with Light Rain 68 20 64 17.8 87 87 N 13 20 29.9 1012 10 16.0934 0.05 1.27
9:33 pm 21:33 Mostly Cloudy with Nearby Thunderstorms 67 19.4 64 17.8 91 91 N 5 7 29.91 1013 7 11.26538 0.02 0.508
9:54 pm 21:54 Cloudy with Rain 66 18.9 63 17.2 90 90 N 12 19 29.93 1014 3 4.82802 0.07 1.778
10:13 pm 22:13 Cloudy with Nearby Thunderstorms 65 18.3 63 17.2 93 93 Calm 29.94 1014 2.5 4.02335 0.07 1.778
10:33 pm 22:33 Cloudy with Nearby Thunderstorms 65 18.3 63 17.2 93 93 N 10 17 29.91 1013 5 8.0467 0.19 4.826
10:54 pm 22:54 Cloudy with Light Rain 64 17.8 63 17.2 96 96 N 8 13 29.93 1013 10 16.0934 0.2 5.08
11:03 pm 23:03 Cloudy with Nearby Thunderstorms 64 17.8 63 17.2 96 96 N 10 17 29.94 1014 6 9.65604 0.01 0.254
11:26 pm 23:26 Cloudy with Rain 64 17.8 63 17.2 96 96 NNW 5 7 29.94 1014 3 4.82802 0.06 1.524
11:34 pm 23:34 Cloudy with Heavy Rain 64 17.8 62 16.7 93 93 N 6 9 29.94 1014 1.75 2.816345 0.12 3.048
11:42 pm 23:42 Cloudy with Nearby Thunderstorms 63 17.2 62 16.7 97 97 ENE 9 15 29.94 1014 2.5 4.02335 0.17 4.318
11:45 pm 23:45 Cloudy with Thunderstorms 63 17.2 62 16.7 97 97 ENE 8 13 29.94 1014 3 4.82802 0.18 4.572
11:54 pm 23:54 Cloudy with Thunderstorms 63 17.2 62 16.7 97 97 NE 7 11 29.93 1013 4 6.43736 0.2 5.08

Powered by AerisWeather